Location: Newark
(22.3000°N, 114.2000°E)
Time: 04:55:42
(UTC+00:00)

Hubble Space Telescope - Visible Passes

Search period start: 23 October 2019 00:00
Search period end: 02 November 2019 00:00
Orbit: 536 x 540 km, 28.5° (Epoch: 21 October)

Date Brightness Start Highest point End Pass type
(mag) Time Alt. Az. Time Alt. Az. Time Alt. Az.
23 Oct 3.2 21:35:15 10° SSW 21:38:09 19° SSE 21:41:03 10° ESE visible
24 Oct 2.8 21:24:08 10° SSW 21:27:31 24° SSE 21:30:54 10° E visible
25 Oct 2.3 21:13:40 12° SW 21:16:54 32° SSE 21:20:36 10° E visible
26 Oct 1.7 21:04:17 24° SSW 21:06:18 42° SSE 21:10:13 10° E visible
27 Oct 1.2 20:54:49 45° SSW 20:55:43 56° SSE 20:59:45 10° ENE visible
28 Oct 0.8 20:45:16 73° SE 20:45:16 73° SE 20:49:14 10° ENE visible
29 Oct 1.5 20:35:36 49° ENE 20:35:36 49° ENE 20:38:42 10° ENE visible
30 Oct 2.4 20:25:52 31° ENE 20:25:52 31° ENE 20:28:07 10° ENE visible
30 Oct 1.7 22:01:39 10° WNW 22:05:27 35° N 22:09:16 10° ENE visible
31 Oct 3.1 20:16:04 21° ENE 20:16:04 21° ENE 20:17:33 10° ENE visible
31 Oct 1.8 21:51:25 11° WNW 21:54:59 34° N 21:58:45 10° ENE visible
01 Nov 3.6 20:06:13 15° ENE 20:06:13 15° ENE 20:06:58 10° ENE visible
01 Nov 1.8 21:41:34 15° WNW 21:44:31 33° N 21:48:16 10° ENE visible
